カタログに戻る

SNAP-3 ALICE

運用中科学VLEO
NORAD 40970·PAYLOAD·🇺🇸 United States

打ち上げ Oct 8, 2015 から Vandenberg Space Force Base

Loading…

次のパス (今後24時間)

TLE

最新Source: Space-Track

元期: Sep 14, 2026, 03:03 UTC

1 40970U 15058G   26257.12737793  .01319047  10305-2  19284-2 0  9992
2 40970  64.7343 150.0118 0015537 267.0802  92.8587 16.04805119130885

AllMySatでSNAP-3 ALICEをリアルタイム追跡

Download on the App Store